Location: Silverdale
(47.6506°N, 122.6941°W)
Time: 03:57:58
(UTC+00:00)

Altair - Pass Details

Date: 04 October 2022
Orbit: 1501 x 1682 km, 47.2° (Epoch: 05 December)

Event Time Altitude Azimuth Distance (km) Brightness Sun altitude
Rises 11:56:07 0° 211° (SSW) 4,730 - -23.7°
Reaches altitude 10° 11:59:23 10° 204° (SSW) 3,774 - -23.2°
Exits shadow 12:00:46 15° 200° (SSW) 3,394 8.9 -23.0°
Maximum altitude 12:08:04 40° 140° (SE) 2,237 8.5 -21.8°
Drops below altitude 10° 12:17:03 10° 75° (ENE) 3,910 10.8 -20.4°
Sets 12:20:29 0° 69° (ENE) 4,917 11.8 -19.8°
